QPF
0.01 0.01 0.01 0.01 0.01 0.02 0.02 0.02 0.02 0.03 0.03 0.04 0.04 0.05 0.08 0.08 0.08 0.08 0.08 0.08 0.08 0.09 0.09 0.09 0.09 0.10 0.13 0.15 0.18 0.19 0.18 0.15 0.11 0.08 0.07 0.07 0.08 0.09 0.08 0.07 0.08 0.08 0.08
0.01 0.01 0.01 0.01 0.01 0.02 0.02 0.02 0.01 0.01 0.02 0.03 0.04 0.05 0.08 0.11 0.09 0.08 0.09 0.10 0.08 0.09 0.11 0.10 0.09 0.09 0.10 0.12 0.16 0.17 0.15 0.12 0.11 0.10 0.09 0.08 0.09 0.09 0.09 0.09 0.08 0.07 0.07
0.00 0.00 0.00 0.00 0.01 0.02 0.03 0.03 0.02 0.01 0.02 0.03 0.05 0.06 0.05 0.09 0.10 0.07 0.08 0.10 0.10 0.10 0.13 0.13 0.13 0.11 0.09 0.08 0.09 0.11 0.13 0.12 0.10 0.11 0.13 0.12 0.11 0.10 0.10 0.09 0.10 0.10 0.10
0.00 0.00 0.00 0.00 0.01 0.02 0.02 0.02 0.02 0.02 0.02 0.02 0.03 0.06 0.05 0.06 0.10 0.08 0.06 0.08 0.09 0.09 0.10 0.13 0.15 0.13 0.10 0.10 0.09 0.10 0.12 0.13 0.12 0.12 0.13 0.14 0.14 0.12 0.11 0.09 0.10 0.10 0.11
0.00 0.00 0.00 0.00 0.01 0.01 0.01 0.01 0.01 0.01 0.02 0.03 0.03 0.06 0.07 0.07 0.08 0.07 0.05 0.05 0.06 0.08 0.08 0.07 0.10 0.11 0.10 0.08 0.08 0.12 0.12 0.11 0.12 0.12 0.11 0.11 0.12 0.12 0.10 0.09 0.10 0.10 0.10
0.00 0.00 0.00 0.00 0.00 0.00 0.00 0.01 0.00 0.01 0.01 0.02 0.03 0.07 0.09 0.07 0.05 0.05 0.04 0.04 0.04 0.07 0.07 0.07 0.07 0.08 0.08 0.07 0.07 0.11 0.14 0.11 0.10 0.10 0.09 0.09 0.09 0.09 0.08 0.09 0.10 0.09 0.10
0.00 0.00 0.00 0.00 0.00 0.00 0.01 0.01 0.00 0.00 0.01 0.02 0.02 0.04 0.06 0.04 0.04 0.04 0.04 0.04 0.05 0.06 0.06 0.06 0.06 0.08 0.09 0.08 0.08 0.09 0.10 0.11 0.09 0.08 0.08 0.08 0.07 0.07 0.06 0.07 0.08 0.08 0.10
0.00 0.00 0.00 0.00 0.00 0.00 0.00 0.00 0.00 0.00 0.00 0.01 0.02 0.02 0.02 0.03 0.04 0.04 0.04 0.04 0.05 0.06 0.06 0.06 0.05 0.06 0.07 0.09 0.09 0.08 0.06 0.06 0.06 0.04 0.04 0.05 0.06 0.07 0.06 0.06 0.07 0.06 0.06
0.00 0.00 0.00 0.00 0.00 0.00 0.00 0.00 0.00 0.00 0.00 0.01 0.02 0.03 0.03 0.04 0.05 0.05 0.04 0.03 0.04 0.05 0.06 0.06 0.04 0.03 0.06 0.09 0.07 0.07 0.05 0.05 0.05 0.05 0.04 0.04 0.06 0.07 0.07 0.06 0.06 0.07 0.06
0.00 0.00 0.00 0.00 0.00 0.00 0.00 0.00 0.00 0.01 0.02 0.02 0.03 0.03 0.03 0.02 0.04 0.04 0.03 0.02 0.03 0.03 0.04 0.05 0.05 0.03 0.04 0.08 0.07 0.05 0.04 0.04 0.04 0.03 0.04 0.04 0.05 0.07 0.08 0.08 0.07 0.07 0.08
0.00 0.00 0.00 0.00 0.00 0.00 0.00 0.00 0.00 0.01 0.01 0.02 0.01 0.01 0.01 0.02 0.03 0.04 0.03 0.01 0.01 0.03 0.04 0.05 0.05 0.04 0.03 0.06 0.05 0.03 0.04 0.04 0.03 0.02 0.03 0.04 0.05 0.05 0.06 0.05 0.05 0.06 0.07
0.00 0.00 0.00 0.00 0.00 0.00 0.00 0.00 0.00 0.01 0.01 0.01 0.00 0.00 0.01 0.01 0.02 0.03 0.02 0.01 0.01 0.02 0.02 0.04 0.06 0.05 0.04 0.04 0.04 0.04 0.06 0.05 0.04 0.04 0.03 0.03 0.04 0.05 0.04 0.03 0.03 0.04 0.05
0.00 0.00 0.00 0.00 0.00 0.00 0.00 0.00 0.00 0.00 0.00 0.00 0.00 0.00 0.00 0.00 0.01 0.01 0.01 0.01 0.01 0.02 0.03 0.05 0.05 0.05 0.04 0.04 0.04 0.04 0.05 0.05 0.04 0.04 0.03 0.02 0.03 0.03 0.03 0.03 0.02 0.02 0.02
0.00 0.00 0.00 0.00 0.00 0.00 0.00 0.00 0.00 0.00 0.00 0.00 0.00 0.00 0.00 0.00 0.00 0.00 0.00 0.01 0.01 0.02 0.03 0.04 0.04 0.05 0.03 0.03 0.04 0.03 0.03 0.04 0.05 0.04 0.03 0.02 0.02 0.02 0.02 0.02 0.01 0.00 0.01
0.00 0.00 0.00 0.00 0.00 0.00 0.00 0.00 0.00 0.00 0.00 0.00 0.00 0.00 0.00 0.00 0.00 0.00 0.00 0.01 0.01 0.02 0.02 0.02 0.03 0.03 0.03 0.05 0.04 0.03 0.03 0.03 0.04 0.04 0.02 0.01 0.01 0.01 0.01 0.00 0.00 0.00 0.00
0.00 0.00 0.00 0.00 0.00 0.00 0.00 0.00 0.00 0.00 0.00 0.00 0.00 0.00 0.00 0.00 0.00 0.00 0.00 0.00 0.00 0.01 0.01 0.02 0.02 0.02 0.04 0.04 0.03 0.02 0.02 0.01 0.02 0.02 0.02 0.01 0.01 0.01 0.00 0.00 0.00 0.00 0.00
0.00 0.00 0.00 0.00 0.00 0.00 0.00 0.00 0.00 0.00 0.00 0.00 0.00 0.00 0.00 0.00 0.00 0.00 0.00 0.00 0.00 0.00 0.01 0.01 0.01 0.01 0.01 0.01 0.01 0.01 0.01 0.00 0.01 0.01 0.01 0.01 0.01 0.00 0.01 0.00 0.00 0.00 0.00
0.00 0.00 0.00 0.00 0.00 0.00 0.00 0.00 0.00 0.00 0.00 0.00 0.00 0.00 0.00 0.00 0.00 0.00 0.00 0.00 0.00 0.00 0.00 0.00 0.00 0.00 0.00 0.00 0.00 0.00 0.00 0.00 0.00 0.00 0.00 0.00 0.00 0.00 0.00 0.00 0.00 0.00 0.00
0.00 0.00 0.00 0.00 0.00 0.00 0.00 0.00 0.00 0.00 0.00 0.00 0.00 0.00 0.00 0.00 0.00 0.00 0.00 0.00 0.00 0.00 0.00 0.00 0.00 0.00 0.00 0.00 0.00 0.00 0.00 0.00 0.00 0.00 0.00 0.00 0.00 0.00 0.00 0.00 0.00 0.00 0.00
0.00 0.00 0.00 0.00 0.00 0.00 0.00 0.00 0.00 0.00 0.00 0.00 0.00 0.00 0.00 0.00 0.00 0.00 0.00 0.00 0.00 0.00 0.00 0.00 0.00 0.00 0.00 0.00 0.00 0.00 0.00 0.00 0.00 0.00 0.00 0.00 0.00 0.00 0.00 0.00 0.00 0.00 0.00
0.00 0.00 0.00 0.00 0.00 0.00 0.00 0.00 0.00 0.00 0.00 0.00 0.00 0.00 0.00 0.00 0.00 0.00 0.00 0.00 0.00 0.00 0.00 0.00 0.00 0.00 0.00 0.00 0.00 0.00 0.00 0.00 0.00 0.00 0.00 0.00 0.00 0.00 0.00 0.00 0.00 0.00 0.00
0.00 0.00 0.00 0.00 0.00 0.00 0.00 0.00 0.00 0.00 0.00 0.00 0.00 0.00 0.00 0.00 0.00 0.00 0.00 0.00 0.00 0.00 0.00 0.00 0.00 0.00 0.00 0.00 0.00 0.00 0.00 0.00 0.00 0.00 0.00 0.00 0.00 0.00 0.00 0.00 0.00 0.00 0.00
0.00 0.00 0.00 0.00 0.00 0.00 0.00 0.00 0.00 0.00 0.00 0.00 0.00 0.00 0.00 0.00 0.00 0.00 0.00 0.00 0.00 0.00 0.00 0.00 0.00 0.00 0.00 0.00 0.00 0.00 0.00 0.00 0.00 0.00 0.00 0.00 0.00 0.00 0.00 0.00 0.00 0.00 0.00
0.00 0.00 0.00 0.00 0.00 0.00 0.00 0.00 0.00 0.00 0.00 0.00 0.00 0.00 0.00 0.00 0.00 0.00 0.00 0.00 0.00 0.00 0.00 0.00 0.00 0.00 0.00 0.00 0.00 0.00 0.00 0.00 0.00 0.00 0.00 0.00 0.00 0.00 0.00 0.00 0.00 0.00 0.00
0.00 0.00 0.00 0.00 0.00 0.00 0.00 0.00 0.00 0.00 0.00 0.00 0.00 0.00 0.00 0.00 0.00 0.00 0.00 0.00 0.00 0.00 0.00 0.00 0.00 0.00 0.00 0.00 0.00 0.00 0.00 0.00 0.00 0.00 0.00 0.00 0.00 0.00 0.00 0.00 0.00 0.00 0.00
0.00 0.00 0.00 0.00 0.00 0.00 0.00 0.00 0.00 0.00 0.00 0.00 0.00 0.00 0.00 0.00 0.00 0.00 0.00 0.00 0.00 0.00 0.00 0.00 0.00 0.00 0.00 0.00 0.00 0.00 0.00 0.00 0.00 0.00 0.00 0.00 0.00 0.00 0.00 0.00 0.00 0.00 0.00
MSLP
1017.88 1017.64 1017.37 1017.05 1016.68 1016.24 1015.75 1015.23 1014.69 1014.14 1013.59 1013.06 1012.53 1012.02 1011.54 1011.10 1010.72 1010.44 1010.25 1010.19 1010.24 1010.38 1010.60 1010.84 1011.08 1011.29 1011.46 1011.60 1011.72 1011.84 1012.01 1012.25 1012.55 1012.92 1013.32 1013.74 1014.13 1014.46 1014.73 1014.93 1015.09 1015.24 1015.42
1018.04 1017.82 1017.57 1017.27 1016.92 1016.53 1016.09 1015.63 1015.14 1014.65 1014.15 1013.64 1013.13 1012.61 1012.11 1011.63 1011.20 1010.86 1010.60 1010.46 1010.43 1010.48 1010.59 1010.72 1010.84 1010.92 1010.98 1011.00 1011.03 1011.09 1011.21 1011.43 1011.76 1012.17 1012.65 1013.15 1013.64 1014.07 1014.43 1014.71 1014.93 1015.13 1015.34
1018.19 1018.00 1017.78 1017.51 1017.18 1016.82 1016.42 1016.00 1015.57 1015.13 1014.67 1014.20 1013.71 1013.20 1012.69 1012.19 1011.73 1011.35 1011.04 1010.84 1010.73 1010.69 1010.70 1010.72 1010.71 1010.67 1010.59 1010.49 1010.41 1010.37 1010.43 1010.61 1010.93 1011.36 1011.89 1012.47 1013.05 1013.59 1014.05 1014.44 1014.76 1015.04 1015.31
1018.32 1018.17 1017.97 1017.72 1017.42 1017.07 1016.70 1016.32 1015.93 1015.53 1015.12 1014.68 1014.22 1013.74 1013.24 1012.74 1012.28 1011.87 1011.53 1011.28 1011.11 1011.00 1010.91 1010.82 1010.70 1010.54 1010.33 1010.10 1009.90 1009.76 1009.73 1009.85 1010.12 1010.55 1011.11 1011.74 1012.40 1013.04 1013.62 1014.13 1014.56 1014.95 1015.31
1018.39 1018.29 1018.12 1017.89 1017.59 1017.26 1016.92 1016.56 1016.20 1015.85 1015.48 1015.09 1014.67 1014.22 1013.75 1013.27 1012.81 1012.40 1012.04 1011.76 1011.54 1011.36 1011.20 1011.02 1010.80 1010.52 1010.20 1009.85 1009.53 1009.28 1009.16 1009.20 1009.42 1009.82 1010.37 1011.03 1011.75 1012.47 1013.16 1013.79 1014.35 1014.86 1015.33
1018.42 1018.36 1018.21 1017.99 1017.71 1017.39 1017.06 1016.73 1016.42 1016.10 1015.79 1015.45 1015.08 1014.67 1014.24 1013.78 1013.34 1012.93 1012.56 1012.25 1011.99 1011.76 1011.53 1011.28 1010.97 1010.60 1010.18 1009.74 1009.32 1008.97 1008.76 1008.72 1008.88 1009.23 1009.76 1010.43 1011.18 1011.96 1012.73 1013.46 1014.14 1014.77 1015.36
1018.39 1018.36 1018.23 1018.02 1017.75 1017.45 1017.15 1016.86 1016.58 1016.32 1016.06 1015.78 1015.46 1015.11 1014.71 1014.29 1013.87 1013.45 1013.08 1012.74 1012.45 1012.17 1011.88 1011.57 1011.20 1010.76 1010.27 1009.76 1009.27 1008.86 1008.58 1008.48 1008.57 1008.87 1009.36 1010.01 1010.77 1011.58 1012.40 1013.21 1013.98 1014.70 1015.40
1018.32 1018.30 1018.19 1017.99 1017.74 1017.46 1017.20 1016.95 1016.73 1016.53 1016.33 1016.11 1015.85 1015.54 1015.19 1014.80 1014.38 1013.97 1013.58 1013.22 1012.89 1012.57 1012.24 1011.88 1011.46 1010.99 1010.47 1009.92 1009.40 1008.96 1008.64 1008.49 1008.54 1008.80 1009.25 1009.86 1010.60 1011.40 1012.24 1013.08 1013.90 1014.69 1015.45
1018.22 1018.20 1018.09 1017.91 1017.68 1017.45 1017.23 1017.03 1016.87 1016.74 1016.60 1016.44 1016.24 1015.98 1015.66 1015.29 1014.88 1014.47 1014.06 1013.67 1013.30 1012.94 1012.58 1012.19 1011.76 1011.27 1010.75 1010.22 1009.70 1009.27 1008.95 1008.79 1008.81 1009.03 1009.44 1010.01 1010.70 1011.47 1012.28 1013.11 1013.93 1014.74 1015.52
1018.09 1018.07 1017.96 1017.80 1017.60 1017.41 1017.24 1017.11 1017.01 1016.94 1016.86 1016.76 1016.60 1016.38 1016.08 1015.73 1015.33 1014.91 1014.48 1014.07 1013.67 1013.29 1012.91 1012.51 1012.08 1011.61 1011.12 1010.62 1010.16 1009.76 1009.47 1009.33 1009.35 1009.55 1009.92 1010.44 1011.07 1011.78 1012.53 1013.31 1014.08 1014.85 1015.61
1017.92 1017.90 1017.80 1017.66 1017.50 1017.36 1017.24 1017.16 1017.12 1017.10 1017.07 1017.01 1016.89 1016.69 1016.42 1016.08 1015.68 1015.26 1014.82 1014.40 1013.99 1013.60 1013.22 1012.83 1012.42 1012.00 1011.56 1011.13 1010.73 1010.40 1010.17 1010.06 1010.10 1010.30 1010.64 1011.10 1011.66 1012.29 1012.96 1013.64 1014.34 1015.03 1015.73
1017.71 1017.68 1017.60 1017.49 1017.37 1017.27 1017.20 1017.17 1017.17 1017.19 1017.19 1017.15 1017.05 1016.87 1016.61 1016.28 1015.90 1015.48 1015.06 1014.64 1014.25 1013.87 1013.51 1013.16 1012.80 1012.44 1012.07 1011.72 1011.40 1011.14 1010.98 1010.92 1010.98 1011.18 1011.49 1011.90 1012.39 1012.93 1013.49 1014.08 1014.66 1015.26 1015.86
1017.42 1017.40 1017.35 1017.27 1017.20 1017.14 1017.11 1017.11 1017.13 1017.16 1017.17 1017.13 1017.04 1016.86 1016.62 1016.31 1015.95 1015.56 1015.18 1014.80 1014.44 1014.11 1013.79 1013.49 1013.19 1012.90 1012.61 1012.34 1012.10 1011.92 1011.82 1011.80 1011.90 1012.09 1012.37 1012.74 1013.16 1013.61 1014.08 1014.55 1015.03 1015.52 1016.02
1017.03 1017.05 1017.03 1016.99 1016.96 1016.93 1016.93 1016.95 1016.97 1017.00 1016.99 1016.95 1016.84 1016.67 1016.44 1016.16 1015.84 1015.51 1015.17 1014.86 1014.56 1014.30 1014.05 1013.81 1013.59 1013.36 1013.15 1012.95 1012.78 1012.66 1012.61 1012.63 1012.74 1012.93 1013.20 1013.52 1013.88 1014.26 1014.64 1015.03 1015.41 1015.80 1016.20
1016.52 1016.58 1016.61 1016.62 1016.62 1016.63 1016.64 1016.66 1016.68 1016.68 1016.66 1016.59 1016.48 1016.31 1016.10 1015.85 1015.59 1015.32 1015.07 1014.84 1014.63 1014.44 1014.27 1014.11 1013.95 1013.80 1013.64 1013.50 1013.38 1013.31 1013.28 1013.33 1013.45 1013.63 1013.88 1014.17 1014.48 1014.81 1015.14 1015.46 1015.78 1016.10 1016.43
1015.88 1015.98 1016.06 1016.12 1016.16 1016.20 1016.23 1016.25 1016.26 1016.24 1016.19 1016.11 1015.98 1015.83 1015.64 1015.45 1015.25 1015.07 1014.90 1014.76 1014.64 1014.54 1014.45 1014.36 1014.26 1014.16 1014.04 1013.94 1013.85 1013.80 1013.79 1013.84 1013.96 1014.14 1014.37 1014.64 1014.93 1015.23 1015.53 1015.83 1016.11 1016.39 1016.68
1015.10 1015.25 1015.37 1015.48 1015.57 1015.64 1015.69 1015.72 1015.71 1015.68 1015.62 1015.53 1015.41 1015.28 1015.13 1014.99 1014.87 1014.76 1014.69 1014.64 1014.60 1014.58 1014.56 1014.53 1014.48 1014.41 1014.32 1014.24 1014.16 1014.11 1014.11 1014.16 1014.27 1014.44 1014.66 1014.92 1015.21 1015.51 1015.82 1016.11 1016.40 1016.68 1016.96
1014.20 1014.38 1014.54 1014.69 1014.82 1014.93 1015.00 1015.04 1015.05 1015.03 1014.97 1014.89 1014.80 1014.69 1014.60 1014.52 1014.46 1014.44 1014.44 1014.47 1014.51 1014.55 1014.58 1014.59 1014.57 1014.53 1014.46 1014.38 1014.30 1014.25 1014.24 1014.29 1014.39 1014.56 1014.78 1015.05 1015.35 1015.67 1015.99 1016.31 1016.62 1016.92 1017.22
1013.23 1013.41 1013.59 1013.77 1013.93 1014.07 1014.17 1014.24 1014.28 1014.28 1014.25 1014.20 1014.15 1014.09 1014.05 1014.03 1014.04 1014.08 1014.15 1014.24 1014.33 1014.42 1014.49 1014.52 1014.52 1014.49 1014.43 1014.35 1014.28 1014.23 1014.23 1014.27 1014.37 1014.54 1014.77 1015.05 1015.37 1015.71 1016.06 1016.42 1016.77 1017.10 1017.43
1012.23 1012.38 1012.56 1012.74 1012.92 1013.08 1013.21 1013.32 1013.39 1013.43 1013.45 1013.45 1013.44 1013.44 1013.46 1013.50 1013.57 1013.67 1013.78 1013.91 1014.04 1014.15 1014.24 1014.29 1014.30 1014.28 1014.24 1014.18 1014.12 1014.08 1014.09 1014.14 1014.25 1014.43 1014.67 1014.96 1015.30 1015.66 1016.04 1016.43 1016.81 1017.18 1017.53
1011.29 1011.39 1011.52 1011.67 1011.84 1012.00 1012.15 1012.29 1012.39 1012.48 1012.55 1012.60 1012.65 1012.71 1012.78 1012.87 1012.99 1013.12 1013.27 1013.42 1013.57 1013.70 1013.80 1013.87 1013.90 1013.91 1013.89 1013.86 1013.83 1013.83 1013.86 1013.94 1014.08 1014.27 1014.52 1014.82 1015.17 1015.54 1015.94 1016.34 1016.74 1017.12 1017.50
1010.50 1010.50 1010.55 1010.64 1010.77 1010.91 1011.05 1011.19 1011.32 1011.43 1011.54 1011.64 1011.74 1011.84 1011.96 1012.09 1012.23 1012.39 1012.56 1012.72 1012.88 1013.03 1013.15 1013.24 1013.31 1013.35 1013.38 1013.40 1013.43 1013.48 1013.56 1013.68 1013.85 1014.06 1014.33 1014.64 1014.98 1015.35 1015.74 1016.14 1016.53 1016.92 1017.30
1009.95 1009.82 1009.76 1009.75 1009.80 1009.88 1009.97 1010.08 1010.20 1010.32 1010.44 1010.56 1010.68 1010.81 1010.95 1011.10 1011.27 1011.44 1011.61 1011.79 1011.96 1012.12 1012.26 1012.40 1012.51 1012.62 1012.71 1012.81 1012.91 1013.04 1013.18 1013.35 1013.56 1013.80 1014.08 1014.39 1014.72 1015.07 1015.44 1015.82 1016.19 1016.56 1016.92
1009.69 1009.42 1009.23 1009.10 1009.03 1009.01 1009.02 1009.06 1009.13 1009.21 1009.30 1009.40 1009.52 1009.64 1009.78 1009.93 1010.09 1010.26 1010.43 1010.61 1010.79 1010.98 1011.16 1011.34 1011.52 1011.70 1011.88 1012.07 1012.26 1012.47 1012.69 1012.93 1013.18 1013.45 1013.75 1014.05 1014.37 1014.70 1015.04 1015.39 1015.73 1016.07 1016.40
1009.75 1009.34 1009.01 1008.74 1008.54 1008.39 1008.28 1008.22 1008.19 1008.19 1008.21 1008.26 1008.33 1008.41 1008.51 1008.63 1008.76 1008.91 1009.08 1009.25 1009.44 1009.65 1009.87 1010.10 1010.35 1010.61 1010.88 1011.16 1011.45 1011.75 1012.05 1012.36 1012.67 1012.97 1013.28 1013.59 1013.91 1014.22 1014.53 1014.85 1015.16 1015.48 1015.78
1010.10 1009.58 1009.12 1008.71 1008.37 1008.08 1007.83 1007.64 1007.48 1007.36 1007.28 1007.23 1007.21 1007.22 1007.26 1007.32 1007.40 1007.51 1007.64 1007.80 1008.00 1008.22 1008.46 1008.74 1009.05 1009.38 1009.73 1010.10 1010.48 1010.86 1011.24 1011.61 1011.97 1012.32 1012.66 1012.98 1013.30 1013.60 1013.91 1014.21 1014.51 1014.81 1015.10
Thickness
5639 5637 5635 5634 5633 5632 5632 5632 5634 5635 5638 5640 5643 5645 5648 5651 5654 5658 5661 5663 5665 5668 5671 5674 5676 5679 5682 5683 5686 5687 5688 5689 5686 5686 5689 5691 5692 5694 5695 5695 5696 5696 5696
5639 5637 5635 5633 5632 5632 5631 5631 5632 5633 5635 5636 5639 5641 5643 5646 5649 5652 5654 5657 5660 5662 5665 5667 5670 5673 5675 5676 5678 5681 5682 5684 5683 5681 5681 5683 5684 5686 5687 5687 5688 5688 5688
5640 5637 5635 5633 5631 5630 5629 5629 5630 5630 5631 5633 5635 5637 5638 5640 5643 5646 5649 5651 5654 5656 5659 5662 5664 5666 5668 5670 5672 5675 5677 5678 5679 5677 5675 5676 5677 5678 5678 5679 5679 5679 5679
5641 5638 5635 5632 5630 5628 5628 5627 5627 5628 5628 5629 5631 5633 5634 5636 5639 5641 5644 5646 5649 5651 5654 5657 5659 5661 5663 5664 5666 5668 5670 5671 5671 5671 5670 5669 5670 5671 5671 5671 5670 5669 5669
5642 5639 5636 5633 5630 5628 5627 5626 5626 5626 5627 5627 5628 5630 5631 5633 5636 5638 5639 5641 5643 5645 5647 5651 5653 5656 5659 5661 5663 5664 5665 5665 5664 5664 5663 5663 5663 5664 5664 5664 5663 5661 5659
5644 5640 5637 5634 5631 5629 5627 5625 5625 5624 5624 5625 5626 5627 5628 5630 5632 5634 5636 5636 5638 5639 5641 5644 5648 5651 5654 5656 5659 5660 5662 5661 5659 5659 5658 5659 5659 5660 5659 5659 5656 5654 5651
5646 5642 5639 5635 5632 5630 5628 5626 5624 5623 5623 5622 5623 5624 5624 5625 5628 5630 5632 5632 5633 5634 5635 5638 5641 5645 5647 5650 5652 5653 5655 5657 5657 5657 5656 5656 5656 5657 5655 5652 5651 5649 5647
5648 5644 5641 5637 5634 5631 5628 5626 5624 5623 5621 5620 5620 5621 5621 5622 5624 5626 5627 5627 5628 5629 5631 5633 5636 5638 5642 5644 5645 5645 5646 5648 5651 5653 5653 5653 5654 5653 5652 5650 5646 5642 5639
5650 5646 5643 5639 5635 5632 5629 5627 5624 5622 5621 5619 5618 5618 5618 5618 5620 5622 5623 5623 5623 5624 5626 5629 5631 5634 5638 5640 5640 5640 5640 5641 5644 5646 5647 5648 5648 5647 5646 5643 5640 5638 5633
5653 5649 5645 5642 5638 5634 5631 5628 5625 5622 5620 5619 5617 5616 5615 5615 5617 5618 5619 5619 5618 5619 5622 5625 5628 5631 5633 5635 5636 5636 5635 5636 5638 5638 5639 5640 5640 5640 5640 5640 5639 5635 5631
5657 5653 5649 5645 5641 5637 5633 5629 5626 5623 5621 5618 5617 5615 5614 5614 5614 5616 5616 5616 5616 5617 5618 5621 5624 5627 5629 5631 5632 5633 5633 5633 5633 5633 5633 5633 5633 5633 5633 5633 5634 5633 5631
5660 5656 5652 5648 5644 5641 5636 5632 5628 5624 5621 5619 5617 5615 5614 5613 5614 5614 5615 5616 5615 5615 5616 5617 5620 5623 5625 5627 5628 5629 5629 5629 5628 5627 5627 5626 5626 5626 5626 5626 5626 5626 5627
5663 5658 5654 5651 5647 5643 5639 5635 5630 5626 5622 5620 5617 5615 5614 5614 5614 5615 5615 5615 5615 5614 5615 5616 5618 5620 5622 5622 5623 5624 5625 5624 5624 5623 5622 5621 5621 5621 5621 5621 5620 5620 5620
5665 5660 5656 5652 5649 5645 5641 5638 5634 5630 5626 5623 5620 5617 5616 5615 5614 5615 5615 5614 5615 5615 5614 5616 5617 5618 5618 5619 5619 5620 5620 5621 5621 5619 5618 5617 5617 5617 5617 5617 5615 5615 5614
5667 5663 5659 5655 5651 5648 5644 5641 5638 5635 5631 5628 5624 5621 5619 5618 5618 5618 5617 5616 5616 5615 5616 5615 5615 5615 5615 5615 5615 5615 5616 5617 5616 5615 5615 5614 5613 5613 5612 5612 5612 5611 5610
5669 5665 5661 5657 5654 5650 5647 5644 5643 5640 5638 5635 5632 5628 5625 5624 5623 5622 5621 5621 5620 5620 5618 5616 5614 5613 5613 5613 5613 5613 5613 5614 5614 5613 5612 5612 5611 5610 5609 5608 5608 5608 5606
5673 5669 5665 5660 5657 5653 5650 5646 5644 5644 5643 5640 5637 5634 5632 5629 5628 5626 5625 5624 5623 5622 5618 5616 5615 5614 5614 5613 5613 5613 5612 5612 5612 5612 5611 5610 5609 5608 5607 5606 5605 5604 5603
5676 5673 5668 5664 5660 5656 5653 5650 5647 5644 5642 5641 5641 5639 5636 5634 5631 5629 5627 5626 5623 5622 5620 5618 5617 5616 5615 5614 5614 5613 5612 5611 5611 5610 5610 5609 5608 5607 5606 5604 5603 5603 5601
5678 5674 5670 5666 5662 5659 5655 5652 5649 5647 5644 5642 5641 5640 5640 5637 5634 5632 5630 5626 5625 5624 5622 5621 5620 5619 5618 5616 5615 5614 5613 5612 5611 5610 5609 5608 5607 5606 5605 5604 5602 5602 5600
5678 5677 5673 5668 5664 5660 5656 5653 5651 5648 5646 5644 5643 5642 5640 5636 5634 5633 5631 5629 5627 5626 5625 5624 5623 5621 5620 5619 5617 5616 5614 5612 5611 5610 5609 5608 5607 5606 5605 5604 5602 5601 5600
5678 5676 5674 5669 5664 5662 5659 5656 5654 5651 5649 5647 5647 5647 5643 5639 5638 5636 5634 5632 5631 5630 5629 5627 5626 5624 5622 5621 5619 5617 5616 5614 5612 5611 5610 5608 5607 5606 5605 5604 5603 5601 5600
5675 5673 5671 5668 5666 5662 5660 5658 5655 5652 5651 5650 5649 5648 5646 5642 5640 5639 5637 5636 5635 5634 5633 5631 5629 5627 5626 5624 5622 5620 5618 5616 5614 5612 5611 5609 5608 5606 5605 5603 5601 5600 5599
5670 5669 5667 5666 5664 5662 5660 5657 5655 5653 5651 5650 5649 5648 5645 5643 5642 5641 5641 5640 5639 5637 5636 5633 5632 5630 5629 5627 5625 5623 5621 5619 5618 5616 5613 5610 5608 5606 5604 5603 5601 5599 5598
5662 5662 5662 5661 5660 5658 5657 5656 5654 5653 5651 5650 5649 5648 5647 5646 5645 5644 5644 5643 5641 5640 5638 5636 5634 5633 5632 5629 5627 5625 5624 5623 5620 5617 5615 5612 5609 5607 5604 5602 5600 5599 5598
5651 5653 5654 5654 5654 5653 5653 5652 5651 5651 5650 5649 5649 5648 5647 5646 5646 5645 5645 5643 5642 5640 5639 5638 5636 5635 5633 5631 5629 5627 5626 5623 5621 5618 5615 5612 5609 5607 5604 5602 5600 5598 5596
5636 5639 5641 5643 5644 5645 5645 5646 5647 5647 5647 5647 5647 5646 5646 5646 5645 5645 5644 5643 5641 5641 5640 5638 5637 5636 5635 5633 5631 5629 5626 5623 5621 5618 5615 5611 5609 5606 5603 5601 5599 5597 5595